星链-32181 (STARLINK-32181)

导读

STARLINK-32181是美国SpaceX公司星链星座的卫星,于2024年8月2日发射。星链项目旨在低轨部署海量卫星,提供全球高速互联网接入,尤其填补偏远地区覆盖空白。作为Starlink组网卫星之一,它运行在近地轨道,配备专用天线与太阳能供电模块,通过星间链路和地面站协同工作,支撑星座的全球通信服务能力,推进SpaceX万颗低轨卫星互联网建设进程。

Basic Information
目录编号:
60349
目录名称:
STARLINK-32181
国际标识:
2024-136W
轨道中心:
EARTH
卫星名称:
星链-32181 (STARLINK-32181)
卫星全名:
星链-32181 (STARLINK-32181)
卫星状态:
在轨 (已飞行685 天)
发射日期:
2024-08-02 UTC
国别 :
美国 (US)
星等 :
--
Orbit Information
数据来源 国际轨道数据 AOE轨道数据
星历时间 2026-06-18T02:23:54+0800
7小时前
查看轨道信息
2026-06-15T02:00:00+0800
3天前
查看轨道信息
半长轴 6840.873km 6840.849km
偏心率 0.0001032 0.0000976
轨道倾角 53.161° 53.161°
近地点辐角 68.812° 92.085°
升交点赤经 328.914° 343.017°
平近点角 291.299° 155.605°
近地点 462.03km 462.044km
远地点 463.442km 463.38km
周期 93.848分钟 93.848分钟
每日圈数 15.343893 15.343973
Detailed Information
卫星平台:
Starlink v2.0 mini
运营商:
太空探索技术公司
运营商所在国:
美国
制造商(研发单位):
太空探索技术公司
制造商所在国:
美国
使用方式:
暂无
Satellite Introduction
星链(Starlink)计划是由太空探索技术公司(SpaceX)提出的一个巨型低轨卫星互联网星座项目,计划在2019年至2024年间在太空搭建由约1.2万颗卫星组成的“星链”网络,其中1584颗将部署在地球上空550千米处的近地轨道,并从2020年开始工作。该卫星仍在工作。
2D Orbit Map
3D Orbit Map
Orbit Altitude Analysis Chart
Orbit Inclination Analysis Chart
Orbit Comprehensive Analysis Chart
View Comprehensive Chart